Tracking 29892 objects as of 21-Nov-2024
HD Live streaming from Space Station
objects crossing your sky now

ATLAS 5 CENTAUR R/B

Track ATLAS 5 CENTAUR R/B now!


NORAD ID: 53962
Int'l Code: 2022-123C
Perigee: 32,667.5 km
Apogee: 35,050.3 km
Inclination: 3.1 °
Period: 1,338.4 minutes
Semi major axis: 40229 km
RCS: Unknown
Launch date: October 4, 2022
Source: United States (US)
Launch site: AIR FORCE EASTERN TEST RANGE (AFETR)

Note: This is a ROCKET BODY
Your satellite tracking list
Your tracking list is empty




NASA's NSSDC Master Catalog

Two Line Element Set (TLE):
1 53962U 22123C   24325.90710501 -.00000185  00000-0  00000+0 0  9998
2 53962   3.1031 118.3667 0296157 263.6531  92.8834  1.07591921  8369
Source of the keplerian elements: AFSPC